Estación de San Nicolás

Ultimos registro cada 15 minutos 22
Estación Fecha / Hora Temperatura Humedad Lluvia Velocidad Dirección Radiación Presion
22 San Nicolás 07-05-2026 05:15 5,5 94 0 0 259 0 1023,9
21 San Nicolás 07-05-2026 05:00 5,4 94 0 0 259 0 1023,6
20 San Nicolás 07-05-2026 04:45 5,3 94 0 0 259 0 1023,5
19 San Nicolás 07-05-2026 04:30 4,7 93 0 0 259 0 1023,5
18 San Nicolás 07-05-2026 04:15 4,4 91 0 0 259 0 1023,3
17 San Nicolás 07-05-2026 04:00 4,7 91 0 0 259 0 1023,3
16 San Nicolás 07-05-2026 03:45 4,9 91 0 0 259 0 1023,1
15 San Nicolás 07-05-2026 03:30 5,7 92 0 0 259 0 1023,1
14 San Nicolás 07-05-2026 03:15 5,8 90 0 0 259 0 1023,2
13 San Nicolás 07-05-2026 03:00 6,6 91 0 0 259 0 1023,3
12 San Nicolás 07-05-2026 02:45 6,9 91 0 0 259 0 1023,3
11 San Nicolás 07-05-2026 02:30 7,2 91 0 0 259 0 1023,1
10 San Nicolás 07-05-2026 02:15 7,3 91 0 0,9 259 0 1023
9 San Nicolás 07-05-2026 02:00 7,5 91 0 0 259 0 1022,9
8 San Nicolás 07-05-2026 01:45 7,7 90 0 0 259 0 1023
7 San Nicolás 07-05-2026 01:30 8,1 90 0 0 259 0 1022,7
6 San Nicolás 07-05-2026 01:15 8,4 89 0 0 259 0 1022,5
5 San Nicolás 07-05-2026 01:00 8,8 88 0 0 259 0 1022,6
4 San Nicolás 07-05-2026 00:45 9,3 88 0 0 259 0 1022,5
3 San Nicolás 07-05-2026 00:30 9,8 88 0 0 259 0 1022,5
2 San Nicolás 07-05-2026 00:15 10,1 88 0 0 259 0 1022,2
1 San Nicolás 07-05-2026 00:00 10,4 88 0 0,9 257 0 1022,1